This is the latest recevied weather packets stored in our database for station/object DB0LHR-6. If no packets are shown the sender has not sent any weather packets the latest 1 day(s).
| Time | Temp. | Humidity | Pressure | Rain* | Wind** | Luminosity | Snow |
|---|---|---|---|---|---|---|---|
| 1778056276 | 17.78° C | 55% | 1006 hPa | 0 mm | - | - | - |
| 1778055376 | 17.22° C | 60% | 1006 hPa | 0 mm | - | - | - |
| 1778054476 | 17.22° C | 58% | 1006 hPa | 0 mm | - | - | - |
| 1778053576 | 16.67° C | 62% | 1006 hPa | 0 mm | - | - | - |
| 1778052676 | 16.11° C | 64% | 1006 hPa | 0 mm | - | - | - |
| 1778051776 | 15.56° C | 66% | 1006 hPa | 0 mm | - | - | - |
| 1778050876 | 15° C | 71% | 1006 hPa | 0 mm | - | - | - |
| 1778049976 | 14.44° C | 73% | 1006 hPa | 0 mm | - | - | - |
| 1778049076 | 14.44° C | 78% | 1006 hPa | 0 mm | - | - | - |
| 1778048176 | 14.44° C | 89% | 1006 hPa | 0 mm | - | - | - |
| 1778047276 | 13.33° C | 91% | 1006 hPa | 0 mm | - | - | - |
| 1778046376 | 12.22° C | 92% | 1006 hPa | 0 mm | - | - | - |
| 1778045476 | 11.67° C | 93% | 1006 hPa | 0 mm | - | - | - |
| 1778044576 | 10.56° C | 93% | 1007 hPa | 0 mm | - | - | - |
| 1778043676 | 10.56° C | 93% | 1007 hPa | 0 mm | - | - | - |
| 1778042776 | 10° C | 93% | 1007 hPa | 0 mm | - | - | - |
| 1778041876 | 10° C | 92% | 1007 hPa | 0 mm | - | - | - |
| 1778040976 | 10° C | 92% | 1007 hPa | 0 mm | - | - | - |
| 1778040076 | 10° C | 91% | 1007 hPa | 0 mm | - | - | - |
| 1778039176 | 10.56° C | 90% | 1007 hPa | 0 mm | - | - | - |
| 1778038276 | 10.56° C | 90% | 1007 hPa | 0 mm | - | - | - |
| 1778037376 | 10.56° C | 89% | 1007 hPa | 0 mm | - | - | - |
| 1778036476 | 10.56° C | 88% | 1007 hPa | 0 mm | - | - | - |
| 1778035576 | 11.11° C | 89% | 1007 hPa | 0 mm | - | - | - |
| 1778034676 | 11.67° C | 90% | 1007 hPa | 0 mm | - | - | - |
* Rain latest 24 hours (hover to see other rain measurements)
** Current wind speed in m/s (hover to see current wind gust speed)